Time,TemperatureF,DewpointF,PressureIn,WindDirection,WindDirectionDegrees,WindSpeedMPH,WindSpeedGustMPH,Humidity,HourlyPrecipIn,Conditions,Clouds,dailyrainin,SolarRadiationWatts/m^2,SoftwareType,DateUTC
2013-08-29 00:00:00,76.3,75.9,30.06,East,90,3.1,3.1,99,0.00,,,0.00,1030.0,meteobridge,2013-08-29 04:00:00,
2013-08-29 00:01:00,76.3,75.9,30.06,East,90,3.1,3.1,99,0.00,,,0.00,1030.0,meteobridge,2013-08-29 04:01:00,
2013-08-29 00:02:00,76.3,75.9,30.06,East,90,2.2,3.1,99,0.00,,,0.00,1030.0,meteobridge,2013-08-29 04:02:00,
2013-08-29 00:03:00,76.3,75.9,30.06,East,90,2.2,2.2,99,0.00,,,0.00,1030.0,meteobridge,2013-08-29 04:03:00,
2013-08-29 00:04:00,76.3,75.9,30.06,East,90,1.6,2.2,99,0.00,,,0.00,1030.0,meteobridge,2013-08-29 04:04:00,
2013-08-29 00:09:00,76.3,75.9,30.06,East,90,2.2,2.2,99,0.00,,,0.00,1030.0,meteobridge,2013-08-29 04:09:00,
2013-08-29 00:14:00,76.3,75.9,30.05,East,90,2.2,2.2,99,0.00,,,0.00,1030.0,meteobridge,2013-08-29 04:14:00,
2013-08-29 00:19:00,76.1,75.7,30.05,NE,45,1.6,2.2,99,0.00,,,0.00,994.0,meteobridge,2013-08-29 04:19:00,
2013-08-29 00:24:00,76.1,75.7,30.05,East,90,1.6,3.1,99,0.00,,,0.00,994.0,meteobridge,2013-08-29 04:24:00,
2013-08-29 00:30:00,75.9,75.6,30.05,NE,45,1.6,1.6,99,0.00,,,0.00,994.0,meteobridge,2013-08-29 04:30:00,
2013-08-29 00:35:00,75.9,75.6,30.05,NE,45,0.7,0.7,99,0.00,,,0.00,994.0,meteobridge,2013-08-29 04:35:00,
2013-08-29 00:40:00,75.7,75.4,30.05,East,90,2.2,3.1,99,0.00,,,0.00,994.0,meteobridge,2013-08-29 04:40:00,
2013-08-29 00:45:00,75.7,75.4,30.05,East,90,1.6,1.6,99,0.00,,,0.00,994.0,meteobridge,2013-08-29 04:45:00,
2013-08-29 00:50:00,75.7,75.4,30.05,East,90,1.6,2.2,99,0.00,,,0.00,994.0,meteobridge,2013-08-29 04:50:00,
2013-08-29 00:55:00,75.6,75.2,30.05,South,180,2.2,3.1,99,0.00,,,0.00,957.0,meteobridge,2013-08-29 04:55:00,
2013-08-29 01:01:00,75.4,75.0,30.05,SE,135,0.7,1.6,99,0.00,,,0.00,957.0,meteobridge,2013-08-29 05:01:00,
2013-08-29 01:06:00,75.4,75.0,30.05,East,90,1.6,1.6,99,0.00,,,0.00,957.0,meteobridge,2013-08-29 05:06:00,
2013-08-29 01:11:00,75.4,75.0,30.05,South,180,0.7,1.6,99,0.00,,,0.00,957.0,meteobridge,2013-08-29 05:11:00,
2013-08-29 01:16:00,75.2,74.8,30.05,South,180,0.0,0.7,99,0.00,,,0.00,957.0,meteobridge,2013-08-29 05:16:00,
2013-08-29 01:21:00,75.0,74.7,30.04,East,90,0.0,0.0,99,0.00,,,0.00,957.0,meteobridge,2013-08-29 05:21:00,
2013-08-29 01:26:00,75.0,74.7,30.04,SW,225,0.0,0.0,99,0.00,,,0.00,957.0,meteobridge,2013-08-29 05:26:00,
2013-08-29 01:32:00,74.8,74.5,30.04,SW,225,0.0,0.0,99,0.00,,,0.00,957.0,meteobridge,2013-08-29 05:32:00,
2013-08-29 01:37:00,74.8,74.5,30.04,East,90,0.7,0.7,99,0.00,,,0.00,921.0,meteobridge,2013-08-29 05:37:00,
2013-08-29 01:42:00,74.8,74.5,30.04,East,90,2.2,2.2,99,0.00,,,0.00,921.0,meteobridge,2013-08-29 05:42:00,
2013-08-29 01:47:00,75.2,74.8,30.04,East,90,2.2,2.2,99,0.00,,,0.00,921.0,meteobridge,2013-08-29 05:47:00,
2013-08-29 01:52:00,75.4,75.0,30.04,East,90,2.2,2.2,99,0.00,,,0.00,921.0,meteobridge,2013-08-29 05:52:00,
2013-08-29 01:57:00,75.4,75.0,30.04,East,90,3.1,3.1,99,0.00,,,0.00,921.0,meteobridge,2013-08-29 05:57:00,
2013-08-29 02:03:00,75.4,75.0,30.03,East,90,1.6,2.2,99,0.00,,,0.00,921.0,meteobridge,2013-08-29 06:03:00,
2013-08-29 02:08:00,75.6,75.2,30.03,East,90,2.2,2.2,99,0.00,,,0.00,884.0,meteobridge,2013-08-29 06:08:00,
2013-08-29 02:13:00,75.6,75.2,30.04,South,180,1.6,1.6,99,0.00,,,0.00,884.0,meteobridge,2013-08-29 06:13:00,
2013-08-29 02:18:00,75.4,75.0,30.03,SE,135,0.7,1.6,99,0.00,,,0.00,884.0,meteobridge,2013-08-29 06:18:00,
2013-08-29 02:23:00,75.4,75.0,30.03,SW,225,0.7,2.2,99,0.00,,,0.00,884.0,meteobridge,2013-08-29 06:23:00,
2013-08-29 02:28:00,75.2,74.8,30.04,South,180,0.0,0.0,99,0.00,,,0.00,884.0,meteobridge,2013-08-29 06:28:00,
2013-08-29 02:34:00,75.0,74.7,30.04,South,180,0.7,0.7,99,0.00,,,0.00,884.0,meteobridge,2013-08-29 06:34:00,
2013-08-29 02:39:00,75.0,74.7,30.03,East,90,1.6,1.6,99,0.00,,,0.00,847.0,meteobridge,2013-08-29 06:39:00,
2013-08-29 02:44:00,75.0,74.7,30.03,East,90,1.6,1.6,99,0.00,,,0.00,847.0,meteobridge,2013-08-29 06:44:00,
2013-08-29 02:49:00,75.0,74.7,30.03,South,180,0.0,0.0,99,0.00,,,0.00,847.0,meteobridge,2013-08-29 06:49:00,
2013-08-29 02:54:00,74.8,74.5,30.03,East,90,0.7,0.7,99,0.00,,,0.00,847.0,meteobridge,2013-08-29 06:54:00,
2013-08-29 02:59:00,75.0,74.7,30.03,East,90,0.7,1.6,99,0.00,,,0.00,847.0,meteobridge,2013-08-29 06:59:00,
2013-08-29 03:05:00,75.0,74.7,30.03,North,0,0.7,0.7,99,0.00,,,0.00,811.0,meteobridge,2013-08-29 07:05:00,
2013-08-29 03:10:00,75.0,74.7,30.03,West,270,0.7,0.7,99,0.00,,,0.00,811.0,meteobridge,2013-08-29 07:10:00,
2013-08-29 03:15:00,74.8,74.5,30.03,WNW,293,0.7,0.7,99,0.00,,,0.00,811.0,meteobridge,2013-08-29 07:15:00,
2013-08-29 03:20:00,74.7,74.3,30.03,SW,225,0.0,0.7,99,0.00,,,0.00,811.0,meteobridge,2013-08-29 07:20:00,
2013-08-29 03:25:00,74.5,74.1,30.03,NNE,23,0.0,0.0,99,0.00,,,0.00,811.0,meteobridge,2013-08-29 07:25:00,
2013-08-29 03:30:00,74.5,74.1,30.03,North,0,0.0,0.7,99,0.00,,,0.00,811.0,meteobridge,2013-08-29 07:30:00,
2013-08-29 03:36:00,74.5,74.1,30.03,West,270,0.7,0.7,99,0.00,,,0.00,774.0,meteobridge,2013-08-29 07:36:00,
2013-08-29 03:41:00,74.3,73.9,30.03,NW,315,0.7,0.7,99,0.00,,,0.00,774.0,meteobridge,2013-08-29 07:41:00,
2013-08-29 03:46:00,74.1,73.8,30.02,NW,315,0.0,0.0,99,0.00,,,0.00,774.0,meteobridge,2013-08-29 07:46:00,
2013-08-29 03:51:00,74.1,73.8,30.03,North,0,0.7,0.7,99,0.00,,,0.00,774.0,meteobridge,2013-08-29 07:51:00,
2013-08-29 03:56:00,74.3,73.9,30.02,West,270,0.0,0.0,99,0.00,,,0.00,737.0,meteobridge,2013-08-29 07:56:00,
2013-08-29 04:01:00,74.3,73.9,30.02,NW,315,0.7,0.7,99,0.00,,,0.00,737.0,meteobridge,2013-08-29 08:01:00,
2013-08-29 04:07:00,74.3,73.9,30.02,North,0,2.2,2.2,99,0.00,,,0.00,737.0,meteobridge,2013-08-29 08:07:00,
2013-08-29 04:12:00,74.5,74.1,30.02,NW,315,0.7,0.7,99,0.00,,,0.00,737.0,meteobridge,2013-08-29 08:12:00,
2013-08-29 04:17:00,74.5,74.1,30.02,North,0,0.7,0.7,99,0.00,,,0.00,737.0,meteobridge,2013-08-29 08:17:00,
2013-08-29 04:22:00,74.7,74.3,30.02,SW,225,0.0,0.7,99,0.00,,,0.00,737.0,meteobridge,2013-08-29 08:22:00,
2013-08-29 04:27:00,74.7,74.3,30.02,East,90,1.6,1.6,99,0.00,,,0.00,701.0,meteobridge,2013-08-29 08:27:00,
2013-08-29 04:32:00,74.7,74.3,30.02,East,90,1.6,2.2,99,0.00,,,0.00,701.0,meteobridge,2013-08-29 08:32:00,
2013-08-29 04:38:00,74.8,74.5,30.02,West,270,0.7,0.7,99,0.00,,,0.00,701.0,meteobridge,2013-08-29 08:38:00,
2013-08-29 04:43:00,74.8,74.5,30.02,North,0,1.6,1.6,99,0.00,,,0.00,701.0,meteobridge,2013-08-29 08:43:00,
2013-08-29 04:48:00,75.0,74.7,30.01,NE,45,0.7,1.6,99,0.00,,,0.00,701.0,meteobridge,2013-08-29 08:48:00,
2013-08-29 04:53:00,75.0,74.7,30.01,NW,315,0.7,0.7,99,0.00,,,0.00,701.0,meteobridge,2013-08-29 08:53:00,
2013-08-29 04:58:00,75.0,74.7,30.01,NE,45,1.6,1.6,99,0.00,,,0.00,664.0,meteobridge,2013-08-29 08:58:00,
2013-08-29 05:03:00,75.0,74.7,30.01,East,90,2.2,2.2,99,0.00,,,0.00,664.0,meteobridge,2013-08-29 09:03:00,
2013-08-29 05:09:00,75.0,74.7,30.01,West,270,2.2,2.2,99,0.00,,,0.00,664.0,meteobridge,2013-08-29 09:09:00,
2013-08-29 05:14:00,75.2,74.8,30.01,NNE,23,3.1,3.1,99,0.00,,,0.00,664.0,meteobridge,2013-08-29 09:14:00,
2013-08-29 05:19:00,75.0,74.7,30.01,East,90,0.0,1.6,99,0.00,,,0.00,664.0,meteobridge,2013-08-29 09:19:00,
2013-08-29 05:24:00,75.2,74.8,30.01,East,90,1.6,2.2,99,0.00,,,0.00,664.0,meteobridge,2013-08-29 09:24:00,
2013-08-29 05:29:00,75.2,74.8,30.01,NW,315,1.6,1.6,99,0.00,,,0.00,628.0,meteobridge,2013-08-29 09:29:00,
2013-08-29 05:35:00,75.2,74.8,30.01,North,0,1.6,1.6,99,0.00,,,0.00,628.0,meteobridge,2013-08-29 09:35:00,
2013-08-29 05:40:00,75.2,74.8,30.01,NW,315,1.6,1.6,99,0.00,,,0.00,628.0,meteobridge,2013-08-29 09:40:00,
2013-08-29 05:45:00,75.0,74.7,30.02,West,270,0.7,0.7,99,0.00,,,0.00,628.0,meteobridge,2013-08-29 09:45:00,
2013-08-29 05:50:00,75.0,74.7,30.01,NW,315,1.6,1.6,99,0.00,,,0.00,628.0,meteobridge,2013-08-29 09:50:00,
2013-08-29 05:55:00,75.0,74.7,30.02,East,90,2.2,2.2,99,0.00,,,0.00,628.0,meteobridge,2013-08-29 09:55:00,
2013-08-29 06:00:00,75.0,74.7,30.02,East,90,0.7,1.6,99,0.00,,,0.00,591.0,meteobridge,2013-08-29 10:00:00,
2013-08-29 06:06:00,75.0,74.7,30.01,SW,225,0.7,0.7,99,0.00,,,0.00,591.0,meteobridge,2013-08-29 10:06:00,
2013-08-29 06:11:00,74.8,74.5,30.02,South,180,0.7,0.7,99,0.00,,,0.00,591.0,meteobridge,2013-08-29 10:11:00,
2013-08-29 06:16:00,74.7,74.3,30.02,South,180,0.0,0.0,99,0.00,,,0.00,591.0,meteobridge,2013-08-29 10:16:00,
2013-08-29 06:21:00,74.7,74.3,30.02,West,270,0.0,0.7,99,0.00,,,0.00,591.0,meteobridge,2013-08-29 10:21:00,
2013-08-29 06:26:00,74.5,74.1,30.02,SW,225,0.7,1.6,99,0.00,,,0.00,554.0,meteobridge,2013-08-29 10:26:00,
2013-08-29 06:31:00,74.3,73.9,30.02,SW,225,0.0,0.0,99,0.00,,,0.00,554.0,meteobridge,2013-08-29 10:31:00,
2013-08-29 06:37:00,74.1,73.8,30.02,SW,225,0.0,0.0,99,0.00,,,0.00,554.0,meteobridge,2013-08-29 10:37:00,
2013-08-29 06:42:00,74.1,73.8,30.02,SW,225,0.0,0.0,99,0.00,,,0.00,554.0,meteobridge,2013-08-29 10:42:00,
2013-08-29 06:47:00,74.3,73.9,30.02,West,270,0.0,0.0,99,0.00,,,0.00,554.0,meteobridge,2013-08-29 10:47:00,
2013-08-29 06:52:00,74.5,74.1,30.02,East,90,1.6,1.6,99,0.00,,,0.00,554.0,meteobridge,2013-08-29 10:52:00,
2013-08-29 06:57:00,74.5,74.1,30.02,ESE,113,0.7,1.6,99,0.00,,,0.00,518.0,meteobridge,2013-08-29 10:57:00,
2013-08-29 07:02:00,74.5,74.1,30.03,East,90,2.2,2.2,99,0.00,,,0.00,518.0,meteobridge,2013-08-29 11:02:00,
2013-08-29 07:08:00,74.5,74.1,30.03,NE,45,1.6,1.6,99,0.00,,,0.00,518.0,meteobridge,2013-08-29 11:08:00,
2013-08-29 07:13:00,74.5,74.1,30.03,SW,225,1.6,1.6,99,0.00,,,0.00,518.0,meteobridge,2013-08-29 11:13:00,
2013-08-29 07:18:00,74.3,73.9,30.03,SE,135,0.0,0.0,99,0.00,,,0.00,518.0,meteobridge,2013-08-29 11:18:00,
2013-08-29 07:23:00,74.5,74.1,30.03,NE,45,0.7,1.6,99,0.00,,,0.00,518.0,meteobridge,2013-08-29 11:23:00,
2013-08-29 07:28:00,74.7,74.3,30.03,East,90,0.0,0.0,99,0.00,,,0.00,481.0,meteobridge,2013-08-29 11:28:00,
2013-08-29 07:33:00,74.8,74.5,30.03,East,90,2.2,2.2,99,0.00,,,0.00,481.0,meteobridge,2013-08-29 11:33:00,
2013-08-29 07:39:00,75.4,75.0,30.03,East,90,1.6,1.6,99,0.00,,,0.00,481.0,meteobridge,2013-08-29 11:39:00,
2013-08-29 07:44:00,76.1,75.7,30.03,North,0,3.1,3.1,99,0.00,,,0.00,481.0,meteobridge,2013-08-29 11:44:00,
2013-08-29 07:49:00,76.6,76.3,30.03,SE,135,1.6,3.8,99,0.00,,,0.00,481.0,meteobridge,2013-08-29 11:49:00,
2013-08-29 07:54:00,77.2,76.8,30.03,East,90,2.2,3.1,99,0.00,,,0.00,481.0,meteobridge,2013-08-29 11:54:00,
2013-08-29 07:59:00,77.5,77.2,30.03,SE,135,2.2,3.1,99,0.00,,,0.00,481.0,meteobridge,2013-08-29 11:59:00,
2013-08-29 08:04:00,78.1,77.7,30.03,East,90,3.1,3.1,99,0.00,,,0.00,481.0,meteobridge,2013-08-29 12:04:00,
2013-08-29 08:10:00,78.3,77.9,30.04,SE,135,3.8,3.8,99,0.00,,,0.00,481.0,meteobridge,2013-08-29 12:10:00,
2013-08-29 08:15:00,78.4,77.9,30.03,East,90,1.6,3.1,98,0.00,,,0.00,481.0,meteobridge,2013-08-29 12:15:00,
2013-08-29 08:20:00,78.8,77.5,30.04,East,90,4.5,4.5,96,0.00,,,0.00,445.0,meteobridge,2013-08-29 12:20:00,
2013-08-29 08:25:00,78.8,77.5,30.04,NE,45,0.7,1.6,96,0.00,,,0.00,445.0,meteobridge,2013-08-29 12:25:00,
2013-08-29 08:30:00,79.9,78.3,30.04,SE,135,1.6,2.2,95,0.00,,,0.00,445.0,meteobridge,2013-08-29 12:30:00,
2013-08-29 08:35:00,80.1,78.3,30.04,SE,135,2.2,2.2,94,0.00,,,0.00,445.0,meteobridge,2013-08-29 12:35:00,
2013-08-29 08:41:00,80.6,78.1,30.04,South,180,0.7,1.6,92,0.00,,,0.00,445.0,meteobridge,2013-08-29 12:41:00,
2013-08-29 08:46:00,81.5,77.9,30.04,NE,45,2.2,2.2,89,0.00,,,0.00,408.0,meteobridge,2013-08-29 12:46:00,
2013-08-29 08:51:00,82.0,77.0,30.04,East,90,1.6,2.2,85,0.00,,,0.00,408.0,meteobridge,2013-08-29 12:51:00,
2013-08-29 08:56:00,82.2,77.2,30.03,North,0,2.2,3.1,85,0.00,,,0.00,408.0,meteobridge,2013-08-29 12:56:00,
2013-08-29 09:01:00,82.4,76.6,30.04,East,90,1.6,2.2,83,0.00,,,0.00,408.0,meteobridge,2013-08-29 13:01:00,
2013-08-29 09:06:00,82.6,76.5,30.04,North,0,1.6,2.2,82,0.00,,,0.00,408.0,meteobridge,2013-08-29 13:06:00,
2013-08-29 09:12:00,82.9,76.1,30.04,East,90,3.1,3.1,80,0.00,,,0.00,408.0,meteobridge,2013-08-29 13:12:00,
2013-08-29 09:17:00,82.4,75.9,30.04,East,90,3.1,3.8,81,0.00,,,0.00,408.0,meteobridge,2013-08-29 13:17:00,
2013-08-29 09:22:00,82.4,76.6,30.04,East,90,2.2,2.2,83,0.00,,,0.00,408.0,meteobridge,2013-08-29 13:22:00,
2013-08-29 09:27:00,82.8,76.3,30.04,North,0,0.7,2.2,81,0.00,,,0.00,371.0,meteobridge,2013-08-29 13:27:00,
2013-08-29 09:32:00,83.3,76.8,30.04,East,90,0.7,2.2,81,0.00,,,0.00,371.0,meteobridge,2013-08-29 13:32:00,
2013-08-29 09:37:00,83.1,76.3,30.04,NE,45,1.6,2.2,80,0.00,,,0.00,371.0,meteobridge,2013-08-29 13:37:00,
2013-08-29 09:43:00,83.3,75.7,30.04,South,180,0.0,0.7,78,0.00,,,0.00,371.0,meteobridge,2013-08-29 13:43:00,
2013-08-29 09:48:00,83.1,75.9,30.05,South,180,1.6,3.8,79,0.00,,,0.00,371.0,meteobridge,2013-08-29 13:48:00,
2013-08-29 09:53:00,83.7,76.1,30.05,West,270,3.1,3.1,78,0.00,,,0.00,371.0,meteobridge,2013-08-29 13:53:00,
2013-08-29 09:58:00,84.4,76.5,30.05,South,180,0.0,2.2,77,0.00,,,0.00,371.0,meteobridge,2013-08-29 13:58:00,
2013-08-29 10:03:00,84.6,76.1,30.04,South,180,0.7,2.2,76,0.00,,,0.00,371.0,meteobridge,2013-08-29 14:03:00,
2013-08-29 10:08:00,84.4,76.5,30.04,East,90,1.6,3.1,77,0.00,,,0.00,335.0,meteobridge,2013-08-29 14:08:00,
2013-08-29 10:14:00,85.1,77.5,30.04,NW,315,0.0,2.2,78,0.00,,,0.00,335.0,meteobridge,2013-08-29 14:14:00,
2013-08-29 10:19:00,86.2,77.4,30.04,NE,45,0.0,0.0,75,0.00,,,0.00,335.0,meteobridge,2013-08-29 14:19:00,
2013-08-29 10:24:00,87.1,77.4,30.04,SW,225,2.2,3.1,73,0.00,,,0.00,335.0,meteobridge,2013-08-29 14:24:00,
2013-08-29 10:29:00,87.4,75.9,30.04,NW,315,3.8,4.5,69,0.00,,,0.00,335.0,meteobridge,2013-08-29 14:29:00,
2013-08-29 10:34:00,88.0,76.5,30.04,West,270,4.5,4.5,69,0.00,,,0.00,335.0,meteobridge,2013-08-29 14:34:00,
2013-08-29 10:39:00,88.3,75.6,30.05,NW,315,3.8,6.0,66,0.00,,,0.00,335.0,meteobridge,2013-08-29 14:39:00,
2013-08-29 10:45:00,88.3,76.5,30.05,SW,225,2.2,3.8,68,0.00,,,0.00,335.0,meteobridge,2013-08-29 14:45:00,
2013-08-29 10:50:00,88.2,75.7,30.05,West,270,3.8,3.8,67,0.00,,,0.00,335.0,meteobridge,2013-08-29 14:50:00,
2013-08-29 10:55:00,88.2,75.4,30.04,NW,315,3.8,3.8,66,0.00,,,0.00,335.0,meteobridge,2013-08-29 14:55:00,
2013-08-29 11:00:00,88.3,76.5,30.04,West,270,2.2,3.1,68,0.00,,,0.00,335.0,meteobridge,2013-08-29 15:00:00,
2013-08-29 11:05:00,88.7,76.3,30.04,NNE,23,3.1,3.1,67,0.00,,,0.00,335.0,meteobridge,2013-08-29 15:05:00,
2013-08-29 11:10:00,89.2,75.9,30.05,NE,45,2.2,3.1,65,0.00,,,0.00,335.0,meteobridge,2013-08-29 15:10:00,
2013-08-29 11:16:00,89.8,73.6,30.04,NW,315,4.5,4.5,59,0.00,,,0.00,335.0,meteobridge,2013-08-29 15:16:00,
2013-08-29 11:21:00,89.8,73.6,30.04,North,0,3.8,4.5,59,0.00,,,0.00,335.0,meteobridge,2013-08-29 15:21:00,
2013-08-29 11:26:00,90.1,73.9,30.04,NW,315,4.5,4.5,59,0.00,,,0.00,335.0,meteobridge,2013-08-29 15:26:00,
2013-08-29 11:31:00,90.1,73.4,30.04,NW,315,6.0,6.0,58,0.00,,,0.00,335.0,meteobridge,2013-08-29 15:31:00,
2013-08-29 11:36:00,90.7,74.3,30.04,SW,225,6.0,6.0,59,0.00,,,0.00,335.0,meteobridge,2013-08-29 15:36:00,
2013-08-29 11:42:00,91.0,73.8,30.04,NW,315,5.4,5.4,57,0.00,,,0.00,335.0,meteobridge,2013-08-29 15:42:00,
2013-08-29 11:47:00,90.9,73.0,30.03,North,0,6.0,6.0,56,0.00,,,0.00,335.0,meteobridge,2013-08-29 15:47:00,
2013-08-29 11:52:00,91.0,75.2,30.04,West,270,3.8,4.5,60,0.00,,,0.00,335.0,meteobridge,2013-08-29 15:52:00,
2013-08-29 11:57:00,90.9,73.6,30.04,WNW,293,7.6,7.6,57,0.00,,,0.00,335.0,meteobridge,2013-08-29 15:57:00,
2013-08-29 12:02:00,91.0,73.8,30.03,West,270,3.8,6.0,57,0.00,,,0.00,335.0,meteobridge,2013-08-29 16:02:00,
2013-08-29 12:07:00,91.0,74.1,30.03,North,0,3.1,6.0,58,0.00,,,0.00,335.0,meteobridge,2013-08-29 16:07:00,
2013-08-29 12:13:00,90.7,73.4,30.03,North,0,5.4,5.4,57,0.00,,,0.00,335.0,meteobridge,2013-08-29 16:13:00,
2013-08-29 12:18:00,91.0,75.2,30.03,NW,315,4.5,4.5,60,0.00,,,0.00,335.0,meteobridge,2013-08-29 16:18:00,
2013-08-29 12:23:00,91.0,72.7,30.03,North,0,3.8,3.8,55,0.00,,,0.00,335.0,meteobridge,2013-08-29 16:23:00,
2013-08-29 12:28:00,90.9,71.4,30.03,North,0,5.4,6.0,53,0.00,,,0.00,335.0,meteobridge,2013-08-29 16:28:00,
2013-08-29 12:33:00,91.0,71.6,30.03,West,270,3.1,3.8,53,0.00,,,0.00,335.0,meteobridge,2013-08-29 16:33:00,
2013-08-29 12:38:00,91.8,72.7,30.03,North,0,3.8,6.0,54,0.00,,,0.00,371.0,meteobridge,2013-08-29 16:38:00,
2013-08-29 12:44:00,91.8,69.3,30.03,NW,315,4.5,6.0,48,0.00,,,0.00,371.0,meteobridge,2013-08-29 16:44:00,
2013-08-29 12:49:00,92.3,70.3,30.03,North,0,6.9,6.9,49,0.00,,,0.00,371.0,meteobridge,2013-08-29 16:49:00,
2013-08-29 12:54:00,92.1,69.6,30.03,NW,315,6.0,7.6,48,0.00,,,0.00,371.0,meteobridge,2013-08-29 16:54:00,
2013-08-29 12:59:00,92.3,68.5,30.03,West,270,4.5,6.9,46,0.00,,,0.00,408.0,meteobridge,2013-08-29 16:59:00,
2013-08-29 13:04:00,93.0,71.6,30.03,East,90,2.2,4.5,50,0.00,,,0.00,408.0,meteobridge,2013-08-29 17:04:00,
2013-08-29 13:09:00,92.8,69.1,30.02,SW,225,3.8,5.4,46,0.00,,,0.00,408.0,meteobridge,2013-08-29 17:09:00,
2013-08-29 13:15:00,93.4,70.7,30.02,West,270,7.6,7.6,48,0.00,,,0.00,408.0,meteobridge,2013-08-29 17:15:00,
2013-08-29 13:20:00,93.2,71.2,30.02,North,0,2.2,5.4,49,0.00,,,0.00,445.0,meteobridge,2013-08-29 17:20:00,
2013-08-29 13:25:00,93.6,69.1,30.02,NW,315,6.9,6.9,45,0.00,,,0.00,445.0,meteobridge,2013-08-29 17:25:00,
2013-08-29 13:30:00,93.9,71.8,30.02,West,270,3.1,4.5,49,0.00,,,0.00,445.0,meteobridge,2013-08-29 17:30:00,
2013-08-29 13:35:00,92.5,69.3,30.02,NW,315,6.0,6.9,47,0.00,,,0.00,445.0,meteobridge,2013-08-29 17:35:00,
2013-08-29 13:40:00,91.4,71.8,30.02,North,0,3.8,4.5,53,0.00,,,0.00,481.0,meteobridge,2013-08-29 17:40:00,
2013-08-29 13:46:00,91.2,71.1,30.02,NE,45,2.2,4.5,52,0.00,,,0.00,481.0,meteobridge,2013-08-29 17:46:00,
2013-08-29 13:51:00,91.6,70.3,30.02,NW,315,5.4,6.0,50,0.00,,,0.00,481.0,meteobridge,2013-08-29 17:51:00,
2013-08-29 13:56:00,91.9,71.2,30.02,North,0,6.0,6.0,51,0.00,,,0.00,518.0,meteobridge,2013-08-29 17:56:00,
2013-08-29 14:01:00,93.0,70.3,30.01,West,270,5.4,6.9,48,0.00,,,0.00,518.0,meteobridge,2013-08-29 18:01:00,
2013-08-29 14:06:00,92.8,70.9,30.02,NW,315,3.1,3.1,49,0.00,,,0.00,518.0,meteobridge,2013-08-29 18:06:00,
2013-08-29 14:11:00,92.1,70.2,30.02,North,0,5.4,5.4,49,0.00,,,0.00,518.0,meteobridge,2013-08-29 18:11:00,
2013-08-29 14:17:00,91.6,71.4,30.02,SW,225,3.1,4.5,52,0.00,,,0.00,554.0,meteobridge,2013-08-29 18:17:00,
2013-08-29 14:22:00,91.2,71.1,30.01,North,0,6.0,6.0,52,0.00,,,0.00,554.0,meteobridge,2013-08-29 18:22:00,
2013-08-29 14:27:00,90.3,69.8,30.01,NE,45,6.9,6.9,51,0.00,,,0.00,554.0,meteobridge,2013-08-29 18:27:00,
2013-08-29 14:32:00,90.0,70.0,30.01,NW,315,2.2,3.8,52,0.00,,,0.00,554.0,meteobridge,2013-08-29 18:32:00,
2013-08-29 14:37:00,90.0,71.1,30.00,SE,135,3.1,3.8,54,0.00,,,0.00,591.0,meteobridge,2013-08-29 18:37:00,
2013-08-29 14:42:00,90.0,70.5,30.00,NE,45,2.2,3.8,53,0.00,,,0.00,591.0,meteobridge,2013-08-29 18:42:00,
2013-08-29 14:48:00,90.0,71.6,30.00,NW,315,3.8,3.8,55,0.00,,,0.00,591.0,meteobridge,2013-08-29 18:48:00,
2013-08-29 14:53:00,90.0,71.1,29.99,East,90,4.5,4.5,54,0.00,,,0.00,591.0,meteobridge,2013-08-29 18:53:00,
2013-08-29 14:58:00,90.3,71.4,29.99,North,0,3.8,6.0,54,0.00,,,0.00,628.0,meteobridge,2013-08-29 18:58:00,
2013-08-29 15:03:00,91.0,70.3,29.99,North,0,4.5,4.5,51,0.00,,,0.00,628.0,meteobridge,2013-08-29 19:03:00,
2013-08-29 15:08:00,91.4,71.2,29.98,North,0,4.5,4.5,52,0.00,,,0.00,628.0,meteobridge,2013-08-29 19:08:00,
2013-08-29 15:13:00,90.7,70.0,29.98,East,90,4.5,6.0,51,0.00,,,0.00,628.0,meteobridge,2013-08-29 19:13:00,
2013-08-29 15:19:00,90.0,71.1,29.98,SSE,158,1.6,3.8,54,0.00,,,0.00,664.0,meteobridge,2013-08-29 19:19:00,
2013-08-29 15:24:00,89.6,69.1,29.98,East,90,3.8,6.0,51,0.00,,,0.00,664.0,meteobridge,2013-08-29 19:24:00,
2013-08-29 15:29:00,89.4,70.0,29.98,NW,315,4.5,4.5,53,0.00,,,0.00,664.0,meteobridge,2013-08-29 19:29:00,
2013-08-29 15:34:00,89.4,70.5,29.97,East,90,5.4,5.4,54,0.00,,,0.00,664.0,meteobridge,2013-08-29 19:34:00,
2013-08-29 15:39:00,89.2,70.9,29.97,East,90,4.5,4.5,55,0.00,,,0.00,664.0,meteobridge,2013-08-29 19:39:00,
2013-08-29 15:44:00,88.7,72.0,29.97,East,90,2.2,2.2,58,0.00,,,0.00,664.0,meteobridge,2013-08-29 19:44:00,
2013-08-29 15:50:00,88.7,72.5,29.96,NE,45,1.6,3.8,59,0.00,,,0.00,701.0,meteobridge,2013-08-29 19:50:00,
2013-08-29 15:55:00,88.9,71.1,29.97,North,0,1.6,2.2,56,0.00,,,0.00,701.0,meteobridge,2013-08-29 19:55:00,
2013-08-29 16:00:00,88.9,71.1,29.96,NE,45,2.2,3.8,56,0.00,,,0.00,701.0,meteobridge,2013-08-29 20:00:00,
2013-08-29 16:05:00,88.7,71.4,29.96,East,90,2.2,3.8,57,0.00,,,0.00,701.0,meteobridge,2013-08-29 20:05:00,
2013-08-29 16:10:00,88.7,72.0,29.96,East,90,0.0,1.6,58,0.00,,,0.00,737.0,meteobridge,2013-08-29 20:10:00,
2013-08-29 16:15:00,88.7,71.1,29.96,NE,45,1.6,1.6,56,0.00,,,0.00,737.0,meteobridge,2013-08-29 20:15:00,
2013-08-29 16:21:00,89.1,72.9,29.96,North,0,0.7,0.7,59,0.00,,,0.00,737.0,meteobridge,2013-08-29 20:21:00,
2013-08-29 16:26:00,89.4,71.1,29.96,West,270,3.1,3.1,55,0.00,,,0.00,774.0,meteobridge,2013-08-29 20:26:00,
2013-08-29 16:31:00,89.8,70.9,29.96,East,90,2.2,2.2,54,0.00,,,0.00,774.0,meteobridge,2013-08-29 20:31:00,
2013-08-29 16:36:00,89.4,69.4,29.96,East,90,3.8,3.8,52,0.00,,,0.00,774.0,meteobridge,2013-08-29 20:36:00,
2013-08-29 16:41:00,89.1,69.6,29.95,NW,315,3.8,3.8,53,0.00,,,0.00,774.0,meteobridge,2013-08-29 20:41:00,
2013-08-29 16:46:00,88.9,70.2,29.95,North,0,1.6,3.1,54,0.00,,,0.00,774.0,meteobridge,2013-08-29 20:46:00,
2013-08-29 16:52:00,88.9,70.7,29.96,SE,135,0.0,3.1,55,0.00,,,0.00,774.0,meteobridge,2013-08-29 20:52:00,
2013-08-29 16:57:00,88.7,71.4,29.96,West,270,3.1,3.1,57,0.00,,,0.00,811.0,meteobridge,2013-08-29 20:57:00,
2013-08-29 17:02:00,88.5,72.9,29.96,South,180,3.8,4.5,60,0.00,,,0.00,811.0,meteobridge,2013-08-29 21:02:00,
2013-08-29 17:07:00,88.3,73.6,29.96,West,270,2.2,11.4,62,0.00,,,0.00,811.0,meteobridge,2013-08-29 21:07:00,
2013-08-29 17:12:00,88.0,73.8,29.96,NNW,338,1.6,3.1,63,0.00,,,0.00,811.0,meteobridge,2013-08-29 21:12:00,
2013-08-29 17:17:00,86.9,75.9,29.96,NW,315,7.6,7.6,70,0.06,,,0.06,847.0,meteobridge,2013-08-29 21:17:00,
2013-08-29 17:23:00,83.5,75.0,29.96,NE,45,5.4,10.7,76,0.08,,,0.08,847.0,meteobridge,2013-08-29 21:23:00,
2013-08-29 17:28:00,81.9,75.4,29.95,SW,225,1.6,2.2,81,0.08,,,0.08,847.0,meteobridge,2013-08-29 21:28:00,
2013-08-29 17:33:00,81.0,76.1,29.95,South,180,2.2,2.2,85,0.08,,,0.08,847.0,meteobridge,2013-08-29 21:33:00,
2013-08-29 17:38:00,80.8,77.9,29.95,West,270,0.0,2.2,91,0.08,,,0.08,884.0,meteobridge,2013-08-29 21:38:00,
2013-08-29 17:43:00,81.0,78.8,29.95,West,270,1.6,2.2,93,0.08,,,0.08,884.0,meteobridge,2013-08-29 21:43:00,
2013-08-29 17:49:00,82.0,81.7,29.95,West,270,2.2,2.2,99,0.08,,,0.08,884.0,meteobridge,2013-08-29 21:49:00,
2013-08-29 17:54:00,83.1,81.9,29.95,North,0,3.8,3.8,96,0.08,,,0.08,884.0,meteobridge,2013-08-29 21:54:00,
2013-08-29 17:59:00,84.7,82.2,29.96,NW,315,1.6,2.2,92,0.08,,,0.08,921.0,meteobridge,2013-08-29 21:59:00,
2013-08-29 18:04:00,85.8,82.2,29.95,NE,45,2.2,2.2,89,0.08,,,0.08,921.0,meteobridge,2013-08-29 22:04:00,
2013-08-29 18:09:00,86.5,81.1,29.95,NW,315,2.2,3.1,84,0.08,,,0.08,921.0,meteobridge,2013-08-29 22:09:00,
2013-08-29 18:14:00,86.7,81.0,29.95,West,270,3.1,3.1,83,0.07,,,0.08,921.0,meteobridge,2013-08-29 22:14:00,
2013-08-29 18:20:00,86.9,80.1,29.95,West,270,3.1,3.8,80,0.00,,,0.08,957.0,meteobridge,2013-08-29 22:20:00,
2013-08-29 18:25:00,86.9,79.5,29.96,West,270,3.1,3.1,79,0.00,,,0.08,957.0,meteobridge,2013-08-29 22:25:00,
2013-08-29 18:30:00,86.5,78.4,29.96,NW,315,9.8,9.8,77,0.00,,,0.08,957.0,meteobridge,2013-08-29 22:30:00,
2013-08-29 18:35:00,84.7,75.2,29.96,North,0,5.4,10.7,73,0.00,,,0.08,957.0,meteobridge,2013-08-29 22:35:00,
2013-08-29 18:40:00,81.9,74.7,29.96,NE,45,12.1,12.1,79,0.00,,,0.08,994.0,meteobridge,2013-08-29 22:40:00,
2013-08-29 18:45:00,80.4,76.1,29.96,NW,315,7.6,9.8,87,0.00,,,0.08,994.0,meteobridge,2013-08-29 22:45:00,
2013-08-29 18:51:00,79.3,76.8,29.97,NE,45,7.6,14.5,92,0.00,,,0.08,994.0,meteobridge,2013-08-29 22:51:00,
2013-08-29 18:56:00,78.6,76.5,29.96,East,90,7.6,7.6,93,0.00,,,0.08,994.0,meteobridge,2013-08-29 22:56:00,
2013-08-29 19:01:00,78.8,75.9,29.96,North,0,10.7,10.7,91,0.00,,,0.08,994.0,meteobridge,2013-08-29 23:01:00,
2013-08-29 19:06:00,79.3,75.2,29.96,East,90,6.0,6.0,87,0.01,,,0.09,994.0,meteobridge,2013-08-29 23:06:00,
2013-08-29 19:11:00,79.9,75.4,29.96,East,90,2.2,4.5,86,0.01,,,0.09,994.0,meteobridge,2013-08-29 23:11:00,
2013-08-29 19:16:00,80.2,75.7,29.95,East,90,0.7,1.6,86,0.01,,,0.09,1030.0,meteobridge,2013-08-29 23:16:00,
2013-08-29 19:22:00,80.6,76.3,29.95,East,90,0.0,0.0,87,0.01,,,0.09,1030.0,meteobridge,2013-08-29 23:22:00,
2013-08-29 19:27:00,81.1,78.3,29.95,SW,225,0.0,0.0,91,0.01,,,0.09,1030.0,meteobridge,2013-08-29 23:27:00,
2013-08-29 19:32:00,81.1,78.6,29.96,SW,225,0.0,0.0,92,0.01,,,0.09,1030.0,meteobridge,2013-08-29 23:32:00,
2013-08-29 19:37:00,81.0,78.8,29.96,West,270,0.0,0.0,93,0.01,,,0.09,1067.0,meteobridge,2013-08-29 23:37:00,
2013-08-29 19:42:00,81.0,78.8,29.96,West,270,0.0,0.0,93,0.01,,,0.09,1067.0,meteobridge,2013-08-29 23:42:00,
2013-08-29 19:47:00,80.8,78.8,29.96,West,270,0.0,0.0,94,0.01,,,0.09,1067.0,meteobridge,2013-08-29 23:47:00,
2013-08-29 19:53:00,80.8,79.2,29.97,NW,315,0.7,0.7,95,0.01,,,0.09,1067.0,meteobridge,2013-08-29 23:53:00,
2013-08-29 19:58:00,80.8,79.2,29.97,NW,315,3.8,3.8,95,0.01,,,0.09,1067.0,meteobridge,2013-08-29 23:58:00,
2013-08-29 20:03:00,80.8,79.2,29.97,NW,315,0.7,2.2,95,0.00,,,0.09,1067.0,meteobridge,2013-08-30 00:03:00,
2013-08-29 20:08:00,80.8,78.8,29.97,North,0,1.6,2.2,94,0.00,,,0.09,1104.0,meteobridge,2013-08-30 00:08:00,
2013-08-29 20:13:00,80.8,78.8,29.97,NW,315,0.7,1.6,94,0.00,,,0.09,1104.0,meteobridge,2013-08-30 00:13:00,
2013-08-29 20:18:00,80.6,78.6,29.98,West,270,0.7,0.7,94,0.00,,,0.09,1104.0,meteobridge,2013-08-30 00:18:00,
2013-08-29 20:24:00,80.6,79.0,29.97,West,270,0.0,0.7,95,0.00,,,0.09,1104.0,meteobridge,2013-08-30 00:24:00,
2013-08-29 20:29:00,80.6,78.6,29.98,West,270,0.0,0.0,94,0.00,,,0.09,1104.0,meteobridge,2013-08-30 00:29:00,
2013-08-29 20:34:00,80.4,78.6,29.97,North,0,0.0,0.0,94,0.00,,,0.09,1104.0,meteobridge,2013-08-30 00:34:00,
2013-08-29 20:39:00,80.4,78.8,29.98,East,90,2.2,2.2,95,0.00,,,0.09,1104.0,meteobridge,2013-08-30 00:39:00,
2013-08-29 20:44:00,80.4,79.2,29.98,East,90,5.4,5.4,96,0.00,,,0.09,1104.0,meteobridge,2013-08-30 00:44:00,
2013-08-29 20:49:00,80.1,78.8,29.98,East,90,2.2,4.5,96,0.00,,,0.09,1104.0,meteobridge,2013-08-30 00:49:00,
2013-08-29 20:55:00,79.9,78.6,29.98,East,90,1.6,3.1,96,0.00,,,0.09,1104.0,meteobridge,2013-08-30 00:55:00,
2013-08-29 21:00:00,79.9,78.3,29.98,East,90,2.2,2.2,95,0.00,,,0.09,1104.0,meteobridge,2013-08-30 01:00:00,
2013-08-29 21:05:00,79.9,78.3,29.98,SSE,158,2.2,2.2,95,0.00,,,0.09,1104.0,meteobridge,2013-08-30 01:05:00,
2013-08-29 21:10:00,79.9,78.3,29.98,SW,225,0.0,0.7,95,0.00,,,0.09,1104.0,meteobridge,2013-08-30 01:10:00,
2013-08-29 21:15:00,79.9,78.3,29.98,East,90,0.7,1.6,95,0.00,,,0.09,1104.0,meteobridge,2013-08-30 01:15:00,
2013-08-29 21:20:00,79.9,78.3,29.98,ESE,113,1.6,1.6,95,0.00,,,0.09,1104.0,meteobridge,2013-08-30 01:20:00,
2013-08-29 21:26:00,79.7,78.1,29.98,NE,45,1.6,2.2,95,0.00,,,0.09,1104.0,meteobridge,2013-08-30 01:26:00,
2013-08-29 21:31:00,79.7,78.1,29.98,East,90,1.6,2.2,95,0.00,,,0.09,1104.0,meteobridge,2013-08-30 01:31:00,
2013-08-29 21:36:00,79.7,78.1,29.98,NE,45,0.7,0.7,95,0.00,,,0.09,1104.0,meteobridge,2013-08-30 01:36:00,
2013-08-29 21:41:00,79.7,78.1,29.98,West,270,0.0,0.7,95,0.00,,,0.09,1104.0,meteobridge,2013-08-30 01:41:00,
2013-08-29 21:46:00,79.7,78.1,29.98,West,270,0.0,0.0,95,0.00,,,0.09,1104.0,meteobridge,2013-08-30 01:46:00,
2013-08-29 21:51:00,79.3,77.7,29.99,SW,225,0.7,0.7,95,0.00,,,0.09,1104.0,meteobridge,2013-08-30 01:51:00,
2013-08-29 21:56:00,79.0,77.7,29.99,SW,225,0.0,0.7,96,0.00,,,0.09,1104.0,meteobridge,2013-08-30 01:56:00,
2013-08-29 22:02:00,78.6,77.7,29.99,SW,225,0.0,0.0,97,0.00,,,0.09,1104.0,meteobridge,2013-08-30 02:02:00,
2013-08-29 22:07:00,78.4,77.5,29.99,SW,225,0.0,0.0,97,0.00,,,0.09,1104.0,meteobridge,2013-08-30 02:07:00,
2013-08-29 22:12:00,78.3,77.7,29.99,SW,225,0.0,0.0,98,0.00,,,0.09,1104.0,meteobridge,2013-08-30 02:12:00,
2013-08-29 22:17:00,78.3,77.9,29.99,SW,225,0.0,0.0,99,0.00,,,0.09,1104.0,meteobridge,2013-08-30 02:17:00,
2013-08-29 22:22:00,78.3,77.9,29.99,SW,225,0.0,0.0,99,0.00,,,0.09,1104.0,meteobridge,2013-08-30 02:22:00,
2013-08-29 22:27:00,78.3,77.9,29.99,SW,225,0.0,0.0,99,0.00,,,0.09,1104.0,meteobridge,2013-08-30 02:27:00,
2013-08-29 22:33:00,78.3,77.9,29.99,SW,225,0.0,0.0,99,0.00,,,0.09,1104.0,meteobridge,2013-08-30 02:33:00,
2013-08-29 22:38:00,78.3,77.9,29.99,SW,225,0.0,0.0,99,0.00,,,0.09,1104.0,meteobridge,2013-08-30 02:38:00,
2013-08-29 22:43:00,78.3,77.9,30.00,SW,225,0.0,0.0,99,0.00,,,0.09,1104.0,meteobridge,2013-08-30 02:43:00,
2013-08-29 22:48:00,78.4,78.1,30.00,South,180,0.0,0.7,99,0.00,,,0.09,1104.0,meteobridge,2013-08-30 02:48:00,
2013-08-29 22:53:00,78.3,77.9,29.99,South,180,0.0,0.0,99,0.00,,,0.09,1104.0,meteobridge,2013-08-30 02:53:00,
2013-08-29 22:58:00,78.1,77.7,29.99,South,180,0.0,0.0,99,0.00,,,0.09,1104.0,meteobridge,2013-08-30 02:58:00,
2013-08-29 23:04:00,78.3,77.9,29.99,South,180,0.0,0.0,99,0.00,,,0.09,1104.0,meteobridge,2013-08-30 03:04:00,
2013-08-29 23:09:00,78.3,77.9,29.99,South,180,0.0,0.0,99,0.00,,,0.09,1067.0,meteobridge,2013-08-30 03:09:00,
2013-08-29 23:14:00,78.1,77.7,30.00,South,180,0.0,0.0,99,0.00,,,0.09,1067.0,meteobridge,2013-08-30 03:14:00,
2013-08-29 23:19:00,78.1,77.7,30.00,South,180,0.0,0.0,99,0.00,,,0.09,1067.0,meteobridge,2013-08-30 03:19:00,
2013-08-29 23:24:00,78.1,77.7,30.00,South,180,0.0,0.0,99,0.00,,,0.09,1067.0,meteobridge,2013-08-30 03:24:00,
2013-08-29 23:29:00,78.3,77.9,30.00,South,180,0.0,0.0,99,0.00,,,0.09,1067.0,meteobridge,2013-08-30 03:29:00,
2013-08-29 23:35:00,78.1,77.7,30.00,South,180,0.0,0.0,99,0.00,,,0.09,1067.0,meteobridge,2013-08-30 03:35:00,
2013-08-29 23:40:00,78.1,77.7,30.00,South,180,0.0,0.0,99,0.00,,,0.09,1067.0,meteobridge,2013-08-30 03:40:00,
2013-08-29 23:45:00,78.1,77.7,30.00,South,180,0.0,0.0,99,0.00,,,0.09,1067.0,meteobridge,2013-08-30 03:45:00,
2013-08-29 23:50:00,78.1,77.7,30.00,South,180,1.6,1.6,99,0.00,,,0.09,1067.0,meteobridge,2013-08-30 03:50:00,
2013-08-29 23:55:00,78.1,77.7,30.00,South,180,0.0,0.0,99,0.00,,,0.09,1030.0,meteobridge,2013-08-30 03:55:00,